This demonstration page uses our WeatherBlox Daily Observations layout. Learn more.

Left ArrowRight Arrow

39.12711, -84.51439

Hourly Observations for June 11, 2016

Temp ( °F °C ) Dew Point ( °F °C ) Humidity (%) Winds ( mph kmh ) Pressure ( in mb ) Visibility ( mi km ) Precip ( " mm )
12:13 am 00:13 Clear with Mist and Fog 66 18.9 66 18.9 100 100 N N/A 30.03 1017 2 3 N/A
12:24 am 00:24 Clear with Mist and Fog 64 18 64 18 100 100 N N/A 30.03 1017 4 6 N/A
12:44 am 00:44 Clear with Mist and Fog 66 19 66 19 100 100 N N/A 30.03 1017 1 1 N/A
12:49 am 00:49 Mostly Cloudy with Fog 66 19 66 19 100 100 N N/A 30.03 1017 0 0 N/A
12:53 am 00:53 Mostly Cloudy with Fog 65 18.3 65 18.3 100 100 N N/A 30.06 1018 0 0 N/A
12:58 am 00:58 Partly Cloudy with Mist and Fog 64 18 64 18 100 100 N N/A 30.06 1018 1 2 N/A
1:07 am 01:07 Mostly Cloudy with Mist and Fog 64 17.8 64 17.8 100 100 N N/A 30.06 1018 3 5 N/A
1:24 am 01:24 Mostly Cloudy with Mist and Fog 66 19 66 19 100 100 N N/A 30.06 1018 2 3 N/A
1:33 am 01:33 Partly Cloudy with Mist and Fog 66 18.9 66 18.9 100 100 N N/A 30.06 1018 4 6 N/A
1:53 am 01:53 Clear with Mist and Fog 66 18.9 66 18.9 100 100 N N/A 30.07 1018 6 10 N/A
2:44 am 02:44 Clear with Mist and Fog 64 18 64 18 100 100 N N/A 30.03 1017 1 1 N/A
2:53 am 02:53 Mostly Cloudy with Fog 64 17.8 64 17.8 100 100 N N/A 30.05 1018 1 1 N/A
3:06 am 03:06 Mostly Clear with Mist and Fog 65 18.3 65 18.3 100 100 N N/A 30.03 1017 1 2 N/A
3:17 am 03:17 Clear 64 18 64 18 100 100 N N/A 30.03 1017 9 14 N/A
3:31 am 03:31 Clear with Mist and Fog 63 17.2 63 17.2 100 100 N N/A 30.03 1017 2 3 N/A
3:40 am 03:40 Clear with Fog 63 17 63 17 100 100 N N/A 30.03 1017 1 1 N/A
3:53 am 03:53 Clear with Fog 63 17.2 63 17.2 100 100 N N/A 30.04 1017 1 1 N/A
4:36 am 04:36 Clear with Fog 61 16.1 61 16.1 100 100 N N/A 30.03 1017 0 0 N/A
4:48 am 04:48 Mostly Cloudy with Fog 61 16 61 16 100 100 SSW 5 7 30.00 1016 0 0 N/A
4:53 am 04:53 Mostly Cloudy with Fog 60 15.6 60 15.6 100 100 N N/A 30.03 1017 0 0 N/A
5:15 am 05:15 Clear with Fog 64 17.8 64 17.8 100 100 N N/A 30.00 1016 1 1 N/A
5:22 am 05:22 Mostly Cloudy with Fog 61 16 61 16 100 100 N N/A 30.00 1016 0 0 N/A
5:28 am 05:28 Mostly Cloudy with Fog 61 16 61 16 100 100 N N/A 30.03 1017 1 1 N/A
5:51 am 05:51 Mostly Clear with Mist and Fog 61 16 61 16 100 100 NE 3 6 30.03 1017 1 2 N/A
5:53 am 05:53 Mostly Clear with Mist and Fog 61 16.1 61 16.1 100 100 NE 3 6 30.06 1018 2 2 N/A
6:13 am 06:13 Sunny with Fog 62 16.7 62 16.7 100 100 N N/A 30.03 1017 1 1 N/A
6:20 am 06:20 Mostly Cloudy with Fog 58 14.4 58 14.4 100 100 SSW 5 7 30.06 1018 0 0 N/A
6:34 am 06:34 Sunny with Fog 59 15 59 15 100 100 SSW 6 9 30.03 1017 1 1 N/A
6:48 am 06:48 Sunny 61 16 61 16 100 100 SW 5 7 30.03 1017 10 16 N/A
6:53 am 06:53 Sunny 60 15.6 60 15.6 100 100 S 5 7 30.05 1018 7 11 N/A
7:53 am 07:53 Sunny 67 19.4 66 18.9 97 97 N N/A 30.06 1018 8 13 N/A
8:53 am 08:53 Sunny 72 22.2 68 20 87 87 N N/A 30.06 1018 10 16 N/A
9:53 am 09:53 Sunny 80 26.7 69 20.6 69 69 WSW 6 9 30.05 1018 10 16 N/A
10:53 am 10:53 Sunny 83 28.3 67 19.4 59 59 W 9 15 30.04 1017 10 16 N/A
11:53 am 11:53 Sunny 86 30 66 18.9 51 51 W 12 19 30.05 1018 10 16 N/A
12:53 pm 12:53 Sunny 87 30.6 68 20 53 53 W 8 13 30.05 1018 10 16 N/A
1:53 pm 13:53 Sunny 88 31.1 66 18.9 48 48 W 13 20 30.04 1017 10 16 N/A
2:53 pm 14:53 Sunny 88 31.1 67 19.4 50 50 WSW 9 15 30.02 1017 10 16 N/A
3:53 pm 15:53 Sunny 89 31.7 64 17.8 43 43 WSW 9 15 30.01 1016 10 16 N/A
4:53 pm 16:53 Sunny 89 31.7 64 17.8 43 43 SW 10 17 30.00 1016 10 16 N/A
5:53 pm 17:53 Sunny 88 31.1 63 17.2 43 43 WSW 9 15 29.99 1016 10 16 N/A
6:53 pm 18:53 Sunny 87 30.6 62 16.7 43 43 W 13 20 29.98 1015 10 16 N/A
7:53 pm 19:53 Sunny 84 28.9 62 16.7 48 48 SW 9 15 29.98 1015 10 16 N/A
8:53 pm 20:53 Sunny 77 25 65 18.3 66 66 S 6 9 29.98 1015 10 16 N/A
9:53 pm 21:53 Clear 74 23.3 65 18.3 74 74 N N/A 29.99 1016 10 16 N/A
10:53 pm 22:53 Clear 72 22.2 66 18.9 82 82 N N/A 30.01 1016 10 16 N/A
11:53 pm 23:53 Clear 72 22.2 66 18.9 82 82 N N/A 30.01 1016 10 16 N/A

Powered by AerisWeather